Theta_e
287 286 286 287 286 286 285 284 281 277 278 281 282 286 287 287 288 287 287 291 294 294 294 296 294 295 295 295 296 296 296 296 297 297 297 299 300 301
287 286 286 286 285 284 284 284 283 280 277 281 283 284 285 287 288 287 287 292 291 293 294 294 295 295 295 295 295 295 295 295 295 296 296 296 298 299
286 286 286 285 284 283 283 282 281 280 278 280 282 283 282 283 284 285 287 288 288 292 293 294 294 294 295 295 295 295 296 294 294 294 294 295 297 297
285 285 285 287 283 283 281 280 279 280 279 277 280 280 281 282 283 283 287 289 287 289 292 292 293 293 293 293 293 294 294 294 294 294 293 293 294 295
285 284 284 284 282 281 280 279 279 281 279 278 278 280 280 281 281 283 285 284 286 289 289 290 291 292 292 292 292 292 292 293 293 292 292 292 293 293
284 284 284 284 282 281 281 279 279 278 278 277 277 277 278 280 281 280 282 283 282 285 287 288 290 290 291 291 291 291 291 292 292 292 291 291 291 292
281 283 284 286 290 287 282 278 277 276 275 275 276 276 276 276 277 281 279 279 281 283 283 284 285 286 287 289 289 290 290 290 291 291 290 290 290 291
279 281 283 285 285 285 284 284 282 278 276 275 275 274 275 277 279 278 277 276 277 283 280 282 284 283 285 286 289 290 290 290 290 290 290 290 289 290
279 280 281 284 282 280 281 281 281 281 280 277 275 275 275 277 279 277 277 277 278 281 282 279 282 281 284 285 288 289 290 289 289 289 289 289 289 288
280 280 279 279 280 280 279 278 278 278 278 279 277 277 278 279 279 278 279 280 282 281 280 277 281 279 282 284 287 289 289 289 289 289 289 289 289 289
280 279 280 279 282 282 279 277 276 277 280 281 281 281 282 282 281 280 278 278 277 277 279 278 279 279 281 282 285 288 289 288 288 289 289 289 289 289
278 279 281 282 284 283 278 271 271 275 276 277 277 278 280 279 281 279 279 276 275 273 278 278 278 279 278 281 283 284 284 286 288 288 289 289 289 287
278 278 278 282 282 282 281 273 272 277 277 275 276 277 277 277 278 278 279 277 274 274 279 279 278 279 278 278 280 282 283 284 285 286 288 289 289 290
277 277 278 281 282 281 279 280 281 279 273 269 267 270 271 275 275 276 277 278 278 278 279 279 278 279 278 277 276 280 282 283 285 285 287 287 289 291
278 278 280 279 279 277 278 280 277 274 268 264 268 269 270 275 275 275 276 276 277 278 279 279 280 279 278 277 277 278 278 283 284 285 287 288 286 288
275 271 271 274 273 273 273 275 271 268 267 267 267 269 269 265 271 273 272 273 273 273 277 278 279 278 276 278 278 276 280 278 282 284 286 287 289 287
269 269 267 267 268 271 271 269 269 267 266 265 264 267 270 271 272 273 273 273 271 271 272 275 276 277 277 279 275 277 277 278 280 281 282 284 286 289
267 263 263 265 268 271 268 268 267 269 269 268 268 269 271 271 271 273 273 272 270 271 271 272 273 273 275 277 280 276 277 278 280 281 282 281 283 286
267 267 267 269 271 271 268 267 266 268 270 270 270 270 271 271 270 270 270 271 271 270 271 272 272 272 271 268 275 281 276 278 278 278 281 282 282 284
272 271 270 271 270 268 266 266 268 269 268 270 269 269 267 269 269 269 270 268 268 269 270 271 271 272 270 269 271 276 281 278 278 278 278 281 283 283
272 273 273 272 271 271 269 268 267 267 268 266 264 264 263 267 268 268 267 266 267 268 268 269 271 274 274 275 272 272 276 280 281 279 280 279 279 281
273 274 275 273 271 271 268 264 265 265 265 264 264 262 263 267 265 266 266 265 266 267 268 271 272 272 272 271 270 271 273 276 280 282 282 281 280 278
274 274 272 271 271 269 270 269 268 264 268 268 267 266 262 259 264 266 266 266 266 265 267 268 270 270 270 270 270 271 272 273 275 277 278 281 282 283
Wind_Speed
3 2 2 1 2 3 2 1 1 3 4 3 3 4 4 4 8 7 9 17 18 19 20 16 23 22 25 25 25 25 24 23 23 25 26 26 26 27
1 3 2 1 3 2 2 2 2 1 3 2 4 4 4 6 11 10 9 19 18 18 16 19 19 22 23 25 27 28 27 27 25 24 26 27 27 28
3 2 2 2 2 2 3 2 3 2 5 5 3 4 6 7 10 8 9 8 6 16 20 20 19 22 22 21 22 24 27 28 27 27 26 27 29 28
5 4 3 2 3 3 2 2 2 2 2 8 6 3 5 8 11 11 9 8 6 16 20 20 21 21 21 21 23 22 25 27 27 27 27 28 28 29
4 4 5 4 4 1 2 2 2 3 2 3 7 3 6 8 9 9 8 5 9 22 21 20 22 22 23 20 22 23 26 25 24 25 26 26 26 27
6 6 6 6 3 5 4 4 2 3 2 3 6 8 7 9 8 9 8 7 10 12 15 16 22 21 24 25 22 22 23 23 23 24 26 24 21 22
6 6 6 6 8 4 1 3 2 2 3 3 7 8 8 9 10 6 7 8 10 10 8 7 11 11 12 17 20 24 22 22 24 26 27 28 27 25
5 6 6 5 8 11 9 7 6 4 4 4 7 8 10 9 7 6 9 10 9 9 4 10 9 10 10 10 21 23 24 25 25 26 28 28 27 27
5 6 4 4 5 4 5 7 7 12 8 7 9 9 11 12 10 10 12 12 13 12 9 9 10 11 12 13 24 26 26 26 27 27 28 29 30 31
5 3 2 3 3 2 1 3 5 6 8 8 8 9 10 12 13 12 14 14 12 6 4 9 11 12 12 13 26 25 25 26 27 28 29 27 27 31
4 3 4 5 3 5 2 4 7 8 10 15 18 21 22 22 19 10 9 12 9 9 6 6 10 13 12 14 9 19 22 23 26 27 26 27 34 30
3 4 7 7 9 9 4 3 5 8 8 9 10 12 13 13 18 9 8 9 11 12 6 9 12 10 13 10 11 11 8 17 23 25 26 32 37 23
2 3 3 9 13 15 16 3 7 9 7 4 6 6 7 7 7 8 7 9 10 12 11 10 11 12 6 16 10 10 9 12 12 15 26 31 34 16
3 3 4 11 14 17 14 15 18 10 4 3 3 4 4 6 7 8 11 11 10 14 14 12 11 10 12 14 16 10 12 13 10 11 11 18 18 9
3 6 9 12 17 12 15 18 12 5 3 2 5 5 4 6 8 9 8 10 11 12 11 12 11 10 11 13 15 13 15 9 9 9 12 9 4 4
0 2 3 8 8 7 7 8 3 3 3 4 3 3 4 3 6 6 8 8 9 9 10 11 9 10 11 12 10 13 9 8 11 11 10 10 4 2
1 1 2 2 4 5 5 4 4 3 3 3 2 4 5 5 7 7 7 8 9 10 10 8 10 11 11 15 10 9 10 11 11 12 11 9 5 2
1 2 3 4 5 6 5 4 3 4 3 3 3 4 6 7 8 8 8 8 9 9 10 10 11 12 10 6 11 9 9 10 10 12 11 9 6 5
3 3 5 5 7 6 4 3 3 3 3 4 4 4 5 6 8 8 9 9 9 10 9 9 9 10 11 12 9 11 11 9 9 10 9 9 8 9
4 5 6 6 5 4 3 3 3 4 3 4 4 4 4 5 8 8 8 10 11 11 11 8 8 9 11 13 14 13 16 11 9 9 10 8 7 13
5 5 5 4 3 3 4 3 3 4 4 3 3 3 4 5 6 7 9 11 12 11 12 10 9 15 11 12 8 10 11 20 16 11 10 7 6 3
6 6 6 4 3 3 3 3 3 3 3 3 4 4 4 3 4 7 8 10 11 11 12 10 11 10 8 10 12 14 12 12 17 17 15 9 5 3
7 7 4 3 3 3 3 3 4 3 4 4 4 4 2 3 4 7 9 9 11 11 12 11 9 8 9 10 12 10 15 14 12 12 12 19 18 17
Wind_Direction
42 42 47 358 12 12 11 3 196 308 310 307 324 313 338 342 339 341 326 316 328 318 310 320 319 318 321 316 315 313 313 311 309 309 308 303 303 305
78 44 14 335 12 4 350 332 5 270 298 321 302 311 333 347 329 330 309 318 309 306 310 305 306 307 306 304 306 306 304 304 304 302 302 302 298 294
352 7 347 10 355 339 353 29 16 351 311 309 305 313 333 330 322 314 304 302 305 324 317 318 318 309 306 306 304 302 299 295 297 297 296 294 292 294
342 4 334 342 330 315 74 0 312 307 301 314 312 306 311 320 310 311 309 310 332 314 315 317 309 306 305 303 301 296 296 292 289 290 292 290 286 285
346 330 310 298 292 228 258 290 259 299 284 289 304 297 304 310 308 302 304 314 319 318 318 317 305 303 300 296 297 295 295 288 280 283 284 282 277 276
325 314 300 289 234 254 257 261 307 327 316 303 302 305 309 312 307 306 309 322 316 308 308 300 301 302 300 295 289 289 291 291 284 280 282 279 271 274
309 305 298 289 316 300 280 36 32 317 303 285 301 303 307 312 306 306 306 305 300 290 293 300 305 297 293 292 285 285 281 278 279 280 279 278 276 271
298 303 303 347 60 66 45 13 356 330 311 300 305 298 300 299 312 304 305 307 300 281 288 296 301 293 289 286 280 275 273 273 273 273 274 273 276 271
281 285 299 61 74 65 21 353 335 329 319 300 296 300 303 300 305 303 302 291 287 287 294 295 299 298 296 290 291 286 278 275 274 273 271 272 271 268
283 301 38 9 152 105 36 320 317 317 310 305 296 293 294 302 298 293 288 285 278 280 286 294 300 297 299 295 290 289 280 277 276 274 272 268 271 270
312 355 348 337 310 356 333 305 307 300 301 306 305 307 306 306 302 298 302 304 313 312 307 285 304 305 298 294 286 297 287 283 280 279 274 278 275 268
293 318 319 311 321 322 308 234 273 288 285 289 304 310 305 291 296 297 304 312 313 306 304 304 307 311 306 302 311 299 285 278 279 281 275 277 276 261
222 263 270 298 310 309 313 245 244 272 270 276 287 297 310 306 306 307 298 301 296 291 300 310 301 297 294 308 309 311 296 296 287 282 283 281 286 241
225 245 268 297 311 312 311 293 297 296 256 243 259 274 281 293 302 302 298 292 281 284 295 292 285 298 308 302 303 318 307 299 277 281 289 306 291 259
212 260 316 321 310 308 297 298 295 273 267 281 266 265 245 281 290 291 287 295 285 285 291 292 293 301 304 296 299 311 310 307 291 296 302 310 319 308
73 330 287 284 281 272 285 283 274 257 231 247 255 246 273 295 288 280 297 302 302 303 295 290 291 302 300 293 294 303 310 306 319 313 315 308 280 280
229 357 316 294 288 282 282 272 278 293 299 271 274 285 287 280 295 300 296 301 302 309 308 309 302 295 287 290 296 292 312 311 313 309 314 314 293 294
57 238 264 257 259 268 260 271 269 276 272 263 270 270 292 301 304 308 306 301 295 304 311 310 311 309 302 287 280 305 308 310 316 325 316 322 318 315
205 232 244 248 260 258 249 244 257 259 245 268 276 278 294 301 308 309 308 311 313 308 304 304 305 307 308 310 307 301 308 305 313 313 317 320 320 316
218 231 240 246 244 243 258 249 263 273 270 270 271 272 275 294 305 305 315 314 309 309 306 303 302 307 314 307 303 310 308 310 306 305 304 295 285 279
248 250 243 243 246 245 246 256 250 264 263 267 266 271 271 289 298 307 308 308 306 306 303 306 306 305 299 297 295 305 311 313 307 308 309 285 278 274
239 249 253 233 235 244 256 258 271 273 275 268 263 262 269 274 283 302 306 307 304 302 300 304 309 302 310 313 308 309 311 313 313 303 298 279 288 257
231 237 227 236 245 240 246 254 261 263 263 263 267 260 264 282 271 296 299 298 300 303 300 300 308 317 303 305 302 304 308 311 314 323 327 332 319 299